| time (UTC) | temp F | wind direction | speed knots | gust knots | rain 1hr in | rain 24hr in | rain mn in | humidity % | barometer mb |
| 20260508054503 | 38 | 227 | 0.0 | 0.9 | 0.00 | 0.01 | 0.00 | 72 | 1010.2 |
| 20260508053108 | 39 | 227 | 0.0 | 0.9 | 0.00 | 0.01 | 0.00 | 72 | 1010.2 |
| 20260508051557 | 39 | 227 | 0.0 | 0.9 | 0.00 | 0.01 | 0.00 | 70 | 1010.4 |
| 20260508050100 | 40 | 227 | 0.0 | 0.9 | 0.00 | 0.01 | 0.00 | 67 | 1010.6 |
| 20260508044552 | 41 | 227 | 0.0 | 0.9 | 0.00 | 0.12 | 0.00 | 67 | 1010.5 |
| 20260508043058 | 40 | 227 | 0.0 | 0.0 | 0.00 | 0.12 | 0.00 | 61 | 1010.5 |
| 20260508041551 | 41 | 227 | 0.0 | 0.9 | 0.00 | 0.12 | 0.00 | 63 | 1010.3 |
| 20260508040043 | 42 | 227 | 0.0 | 0.0 | 0.00 | 0.12 | 0.00 | 58 | 1010.4 |
| 20260508034542 | 44 | 227 | 0.0 | 0.9 | 0.00 | 0.14 | 0.12 | 57 | 1010.4 |
| 20260508033041 | 43 | 227 | 0.0 | 0.0 | 0.00 | 0.14 | 0.12 | 56 | 1010.5 |
| 20260508031541 | 42 | 190 | 0.0 | 0.0 | 0.00 | 0.14 | 0.12 | 62 | 1010.6 |
| 20260508030043 | 43 | 191 | 0.0 | 0.0 | 0.00 | 0.14 | 0.12 | 63 | 1010.5 |
| 20260508024540 | 43 | 191 | 0.0 | 0.0 | 0.00 | 0.14 | 0.12 | 62 | 1010.4 |
| 20260508023037 | 44 | 191 | 0.0 | 0.0 | 0.00 | 0.14 | 0.12 | 62 | 1010.3 |
| 20260508021541 | 44 | 191 | 0.0 | 0.0 | 0.00 | 0.14 | 0.12 | 58 | 1010.3 |
| 20260508020045 | 45 | 191 | 0.0 | 0.0 | 0.00 | 0.14 | 0.12 | 58 | 1010.3 |
| 20260508014536 | 46 | 191 | 0.0 | 0.0 | 0.00 | 0.15 | 0.12 | 51 | 1010.1 |
| 20260508013041 | 47 | 191 | 0.0 | 1.7 | 0.00 | 0.15 | 0.12 | 51 | 1009.9 |
| 20260508011534 | 48 | 181 | 0.0 | 0.9 | 0.00 | 0.15 | 0.12 | 50 | 1009.7 |
| 20260508010035 | 48 | 221 | 0.0 | 0.9 | 0.00 | 0.15 | 0.12 | 50 | 1009.5 |
| 20260508004533 | 49 | 155 | 0.0 | 0.0 | 0.00 | 0.15 | 0.12 | 48 | 1009.2 |
| 20260508003033 | 49 | 155 | 0.0 | 1.7 | 0.00 | 0.15 | 0.12 | 49 | 1009.0 |
| 20260508001558 | 50 | 271 | 0.0 | 0.9 | 0.00 | 0.15 | 0.12 | 47 | 1008.7 |
| 20260508000031 | 51 | 271 | 0.0 | 0.9 | 0.00 | 0.15 | 0.12 | 43 | 1008.5 |
| 20260507234534 | 53 | 335 | 0.0 | 5.2 | 0.00 | 0.15 | 0.12 | 41 | 1008.3 |
| 20260507233030 | 53 | 77 | 0.0 | 0.9 | 0.00 | 0.15 | 0.12 | 41 | 1008.1 |
| 20260507231535 | 54 | 359 | 0.0 | 0.9 | 0.00 | 0.15 | 0.12 | 40 | 1007.8 |
| 20260507230029 | 55 | 75 | 0.0 | 0.9 | 0.00 | 0.15 | 0.12 | 40 | 1007.6 |
| 20260507224539 | 56 | 172 | 0.0 | 1.7 | 0.00 | 0.15 | 0.12 | 39 | 1007.4 |
| 20260507223028 | 57 | 306 | 1.7 | 5.2 | 0.00 | 0.15 | 0.12 | 38 | 1007.2 |
| 20260507221528 | 58 | 344 | 0.9 | 3.5 | 0.00 | 0.15 | 0.12 | 31 | 1007.1 |
| 20260507220038 | 59 | 341 | 1.7 | 5.2 | 0.00 | 0.15 | 0.12 | 29 | 1007.0 |
| 20260507214534 | 59 | 10 | 0.9 | 3.5 | 0.00 | 0.18 | 0.12 | 33 | 1007.1 |
| 20260507213029 | 60 | 299 | 0.0 | 3.5 | 0.00 | 0.18 | 0.12 | 29 | 1007.0 |
| 20260507211525 | 60 | 291 | 0.0 | 3.5 | 0.00 | 0.18 | 0.12 | 31 | 1007.1 |
| 20260507210025 | 61 | 161 | 0.0 | 7.0 | 0.00 | 0.18 | 0.12 | 29 | 1006.9 |
| 20260507204523 | 62 | 11 | 1.7 | 4.3 | 0.00 | 0.26 | 0.12 | 27 | 1006.8 |
| 20260507203029 | 61 | 330 | 1.7 | 5.2 | 0.00 | 0.26 | 0.12 | 29 | 1006.7 |
| 20260507201523 | 61 | 255 | 1.7 | 7.0 | 0.00 | 0.26 | 0.12 | 30 | 1006.8 |
| 20260507200025 | 61 | 311 | 1.7 | 7.0 | 0.00 | 0.26 | 0.12 | 28 | 1006.7 |
| 20260507194521 | 61 | 257 | 2.6 | 6.1 | 0.00 | 0.48 | 0.12 | 31 | 1006.7 |
| 20260507193019 | 62 | 335 | 1.7 | 6.1 | 0.00 | 0.48 | 0.12 | 33 | 1006.7 |
| 20260507191518 | 62 | 356 | 1.7 | 5.2 | 0.00 | 0.48 | 0.12 | 31 | 1006.9 |
| 20260507190019 | 63 | 232 | 1.7 | 4.3 | 0.00 | 0.48 | 0.12 | 32 | 1006.9 |
| 20260507184513 | 62 | 195 | 0.9 | 5.2 | 0.00 | 0.56 | 0.12 | 35 | 1007.1 |
| 20260507183013 | 61 | 256 | 1.7 | 8.7 | 0.00 | 0.56 | 0.12 | 43 | 1007.0 |
| 20260507181511 | 61 | 279 | 1.7 | 5.2 | 0.00 | 0.56 | 0.12 | 42 | 1007.1 |
| 20260507180012 | 60 | 248 | 0.9 | 8.7 | 0.00 | 0.56 | 0.12 | 48 | 1007.1 |
| 20260507174509 | 59 | 330 | 1.7 | 5.2 | 0.00 | 0.56 | 0.12 | 48 | 1007.3 |
| 20260507173008 | 61 | 317 | 2.6 | 5.2 | 0.00 | 0.56 | 0.12 | 44 | 1007.3 |
| 20260507171514 | 60 | 250 | 1.7 | 3.5 | 0.00 | 0.56 | 0.12 | 47 | 1007.3 |
| 20260507170007 | 58 | 226 | 2.6 | 7.8 | 0.00 | 0.56 | 0.12 | 50 | 1007.5 |
| 20260507164506 | 59 | 271 | 0.9 | 2.6 | 0.00 | 0.56 | 0.12 | 48 | 1007.6 |
| 20260507163006 | 60 | 334 | 0.9 | 2.6 | 0.00 | 0.56 | 0.12 | 48 | 1007.6 |
| 20260507161506 | 61 | 207 | 1.7 | 6.1 | 0.00 | 0.56 | 0.12 | 46 | 1007.7 |
| 20260507160007 | 60 | 207 | 0.0 | 3.5 | 0.00 | 0.56 | 0.12 | 48 | 1008.0 |
| 20260507154502 | 61 | 271 | 0.0 | 3.5 | 0.00 | 0.56 | 0.12 | 46 | 1008.1 |
| 20260507153003 | 60 | 254 | 1.7 | 7.0 | 0.00 | 0.56 | 0.12 | 48 | 1008.2 |
| 20260507151600 | 60 | 237 | 0.9 | 2.6 | 0.00 | 0.56 | 0.12 | 50 | 1008.3 |
| 20260507150057 | 60 | 261 | 0.0 | 4.3 | 0.00 | 0.56 | 0.12 | 50 | 1008.4 |
| 20260507144554 | 59 | 338 | 0.9 | 5.2 | 0.00 | 0.56 | 0.12 | 55 | 1008.6 |
| 20260507143053 | 58 | 326 | 0.9 | 4.3 | 0.00 | 0.56 | 0.12 | 55 | 1008.6 |
| 20260507141553 | 58 | 138 | 0.0 | 2.6 | 0.00 | 0.56 | 0.12 | 59 | 1008.9 |
| 20260507140052 | 57 | 150 | 0.0 | 4.3 | 0.00 | 0.56 | 0.12 | 61 | 1008.9 |
| 20260507134550 | 56 | 252 | 0.0 | 4.3 | 0.00 | 0.56 | 0.12 | 60 | 1009.1 |
| 20260507133045 | 55 | 7 | 0.9 | 2.6 | 0.00 | 0.56 | 0.12 | 63 | 1009.3 |
| 20260507131554 | 55 | 280 | 0.0 | 2.6 | 0.00 | 0.56 | 0.12 | 66 | 1009.3 |
| 20260507130040 | 54 | 319 | 0.9 | 3.5 | 0.00 | 0.56 | 0.12 | 68 | 1009.4 |
| 20260507124536 | 53 | 1 | 0.0 | 2.6 | 0.00 | 0.56 | 0.12 | 71 | 1009.3 |
| 20260507123036 | 51 | 338 | 0.0 | 4.3 | 0.00 | 0.56 | 0.12 | 74 | 1009.7 |
| 20260507121534 | 51 | 322 | 0.0 | 2.6 | 0.00 | 0.56 | 0.12 | 74 | 1009.6 |
| 20260507120040 | 50 | 356 | 0.0 | 3.5 | 0.01 | 0.56 | 0.12 | 78 | 1009.7 |
| 20260507114532 | 49 | 268 | 0.9 | 3.5 | 0.01 | 0.56 | 0.12 | 83 | 1009.6 |
| 20260507113029 | 47 | 96 | 0.0 | 0.9 | 0.01 | 0.56 | 0.12 | 96 | 1009.6 |
| 20260507111528 | 45 | 349 | 0.0 | 2.6 | 0.01 | 0.56 | 0.12 | 97 | 1009.7 |
| 20260507110029 | 44 | 97 | 0.0 | 0.9 | 0.00 | 0.55 | 0.11 | 97 | 1009.7 |
| 20260507104527 | 44 | 214 | 0.0 | 0.9 | 0.00 | 0.55 | 0.11 | 97 | 1010.0 |
| 20260507103027 | 43 | 214 | 0.0 | 0.9 | 0.00 | 0.55 | 0.11 | 97 | 1009.7 |
| 20260507101527 | 43 | 257 | 0.0 | 0.9 | 0.00 | 0.55 | 0.11 | 96 | 1009.8 |
| 20260507100033 | 43 | 257 | 0.0 | 0.9 | 0.00 | 0.55 | 0.11 | 96 | 1010.0 |
| 20260507094524 | 43 | 257 | 0.0 | 0.9 | 0.00 | 0.55 | 0.11 | 96 | 1009.2 |
| 20260507093024 | 43 | 257 | 0.0 | 0.9 | 0.00 | 0.55 | 0.11 | 96 | 1008.8 |
| 20260507091521 | 44 | 257 | 0.0 | 0.9 | 0.00 | 0.55 | 0.11 | 95 | 1009.0 |
| 20260507090023 | 44 | 257 | 0.0 | 0.9 | 0.00 | 0.55 | 0.11 | 96 | 1009.3 |
| 20260507084518 | 44 | 228 | 0.0 | 0.9 | 0.00 | 0.55 | 0.11 | 96 | 1009.4 |
| 20260507083017 | 44 | 228 | 0.0 | 0.0 | 0.00 | 0.55 | 0.11 | 96 | 1009.3 |
| 20260507081533 | 45 | 228 | 0.0 | 0.9 | 0.00 | 0.55 | 0.11 | 96 | 1009.4 |
| 20260507080013 | 45 | 20 | 0.0 | 0.9 | 0.00 | 0.55 | 0.11 | 96 | 1008.9 |
| 20260507074523 | 45 | 95 | 0.0 | 0.9 | 0.00 | 0.55 | 0.11 | 96 | 1008.8 |
| 20260507073009 | 46 | 290 | 0.0 | 0.9 | 0.00 | 0.55 | 0.11 | 97 | 1008.9 |
| 20260507071507 | 47 | 289 | 0.0 | 1.7 | 0.00 | 0.55 | 0.11 | 97 | 1008.9 |
| 20260507070009 | 47 | 297 | 0.0 | 0.9 | 0.00 | 0.55 | 0.11 | 97 | 1008.4 |
| 20260507064504 | 47 | 297 | 0.0 | 0.9 | 0.00 | 0.55 | 0.11 | 97 | 1008.2 |
| 20260507063001 | 47 | 297 | 0.0 | 0.0 | 0.00 | 0.55 | 0.11 | 97 | 1008.2 |
| 20260507061607 | 47 | 297 | 0.0 | 0.9 | 0.00 | 0.55 | 0.11 | 97 | 1008.0 |
| 20260507060058 | 48 | 297 | 0.0 | 0.9 | 0.00 | 0.55 | 0.11 | 97 | 1008.1 |